Starlink 2536

operational
NORAD ID: 48310 Int'l Des: 2021-036 Owner: SPXS Country: US Constellation: starlink
LEOCIRCULARSTARLINK_TYPE

About Starlink 2536

Description loading...

Live Position

Loading 3D Globe...

Upcoming Passes

Altitude History

Altitude vs Time

uPlot chart will show altitude changes over time

Two-Line Element Set

1 48310U 21036AL 26102.80623199 .00005300 00000-0 19092-3 0 9999
2 48310 53.1590 292.6995 0001052 92.1125 267.9996 15.30202018273407
Epoch: Apr 12, 2026 • Age: 12 hours

Current Status

Altitude 494.4 km
Velocity 7.62 km/s
Sub-Earth Point -53.25°S, 117.37°W
Launch Date Apr 29, 2021
Age 4.9 years
Type internet

Technical Details

Classification Payload
Mass 260.00 kg
Dry Mass 248.00 kg
Total Mass 260.00 kg
Length 0.20 m
Diameter 2.80 m
Span 9.00 m
Shape Box + pan
Manufacturer SPXS
Bus Type Starlink
Phase Status In Orbit
Owner/State SPXS/US

Large Constellations

Loading constellations...